User: anonymous   Login
Location: Sungai Laei
(2.6000°N, 113.7167°E)
Time: 08:11:53
(UTC+00:00)
Language:

Cosmos 2369 Rocket - Orbit

View from above orbital plane
View from above orbital plane
View from above satellite
View from above satellite

Ground track
Ground track

The orbit data is extracted from the following two-line orbital elements,

1 26070U 00006B   22228.45619561 -.00000237  00000-0 -96560-4 0  9998
2 26070  71.0037 313.1212 0016825 353.9264   6.1652 14.15495746164403
Epoch (UTC): 16 August 2022 10:56:55
Eccentricity: 0.0016825
inclination: 71.0037°
perigee height: 828 km
apogee height: 853 km
right ascension of ascending node: 313.1212°
argument of perigee: 353.9264°
revolutions per day: 14.15495746
mean anomaly at epoch: 6.1652°
orbit number at epoch: 16440

The dashed part of the orbit path shows where the satellite is in the earth's shadow,  

DLR